Location: *
(47.6000°N, 9.0000°E)
Time: 16:48:51
(UTC+00:00)

Daily predictions for brighter satellites

Satellite Brightness Start Highest point End
(mag) Time Altitude Azimuth Time Altitude Azimuth Time Altitude Azimuth
Gbstr 26 Del rocket 4.1 16:41:11 10° WNW 16:46:51 84° SSW 16:53:52 10° ESE
Cosmos 1726 Rocket 3.6 16:44:41 10° S 16:49:04 90° ENE 16:53:26 10° N
Unknown 4.2 16:45:38 10° WNW 16:49:16 39° N 16:52:54 10° E
Cosmos 1777 Rocket 4.0 16:44:14 10° NNW 16:49:29 73° ENE 16:54:40 10° SSE
CZ-4 R/B 2.3 16:47:26 10° SE 16:51:06 29° ENE 16:54:47 10° N
Meteor 1-11 4.4 16:46:32 10° N 16:52:16 59° ENE 16:57:59 10° SSE
Cosmos 1461 2.8 16:49:23 10° NW 16:53:28 79° NE 16:57:42 10° SE
Cosmos 839 Rocket 4.5 16:47:50 10° NW 16:54:02 75° WSW 17:01:07 10° SSE
AQUARIUS 4.3 16:51:52 10° SSE 16:56:21 82° WSW 17:00:53 10° NNW
ATLAS CENTAUR R/B 3.9 16:55:32 10° N 16:56:25 10° N 16:57:17 10° NNE
Cosmos 489 Rocket 4.5 16:50:24 10° SSW 16:56:35 75° ESE 17:02:47 10° NNE
ATLAS 3B R/B 3.9 16:55:33 10° SSE 16:59:55 18° ESE 17:04:13 10° ENE
Cosmos 1833 Rocket 2.7 16:54:59 10° NNW 17:00:37 70° ENE 17:06:14 10° SE
Cosmos 1953 3.8 16:57:55 10° SSW 17:01:48 42° WNW 17:05:42 10° N
FALCON 9 DEB 3.2 17:01:22 10° WNW 17:04:52 82° SSW 17:08:21 10° ESE
CENTAUR R/B 3.7 17:01:32 10° SSE 17:05:43 20° ESE 17:10:18 10° ENE
Cosmos 292 Rocket 4.0 17:03:26 10° SSW 17:08:10 73° WNW 17:12:58 10° NNE
Unknown 4.5 17:05:18 10° WNW 17:09:12 38° N 17:12:48 12° ENE
Cosmos 1242 Rocket 3.5 17:06:20 10° NNW 17:09:56 53° W 17:13:31 10° S
Cosmos 2084 Rocket 3.6 17:07:09 10° NW 17:11:32 59° NE 17:15:52 10° SE
Unknown 4.5 17:08:34 10° WNW 17:12:28 38° N 17:15:55 13° ENE
Unknown 4.5 17:08:38 10° WNW 17:12:32 38° N 17:15:59 13° ENE
Unknown 4.5 17:10:13 10° WNW 17:14:07 38° N 17:17:30 13° ENE
Falcon 9 debris 3.6 17:13:46 10° WNW 17:17:11 61° SSW 17:20:35 10° SE
Unknown 4.5 17:13:28 10° WNW 17:17:22 38° N 17:20:36 14° ENE
SJ 16-02 2.8 17:14:18 10° N 17:17:24 18° NE 17:19:25 14° E
Unknown 4.0 17:14:37 10° WNW 17:18:22 44° NNE 17:21:17 15° E
SMAP 4.3 17:14:03 10° S 17:18:32 46° W 17:23:02 10° NNW
Cosmos 2058 Rocket 3.5 17:16:03 10° SSW 17:20:22 66° W 17:24:44 10° N
Unknown 4.5 17:16:55 10° WNW 17:20:49 39° N 17:23:53 15° ENE
Cosmos 1300 3.5 17:18:32 10° SSE 17:21:49 28° E 17:25:07 10° NNE
Unknown 4.5 17:18:34 10° WNW 17:22:29 39° N 17:25:28 16° ENE
Abrixas rocket 2.0 17:19:27 10° W 17:22:32 85° N 17:24:36 19° ENE
Unknown 4.5 17:20:15 10° WNW 17:24:09 39° N 17:27:05 16° ENE
Unknown 3.4 17:20:44 10° WNW 17:24:15 70° SSW 17:27:36 11° SE
COBE Rocket 3.9 17:19:52 10° NNE 17:25:02 80° E 17:30:03 10° S
NOAA 12 4.4 17:20:01 10° S 17:25:17 73° WSW 17:30:38 10° NNW
Envisat 3.0 17:20:26 10° SSE 17:25:31 90° ENE 17:30:39 10° NNW
Unknown 4.5 17:21:57 10° WNW 17:25:51 39° N 17:28:43 17° ENE
Unknown 4.4 17:25:17 10° WNW 17:29:11 39° N 17:31:53 18° ENE
Unknown 4.4 17:27:00 10° WNW 17:30:56 40° N 17:33:32 18° ENE
COSMO-SKYMED 1 2.5 17:27:40 10° NNE 17:32:01 68° ESE 17:36:20 10° S
Unknown 4.4 17:28:35 10° WNW 17:32:30 40° N 17:35:03 19° ENE
CSL-04 Debris 4.2 17:27:07 10° SSE 17:32:31 66° ENE 17:37:59 10° N
Unknown 4.4 17:30:11 10° WNW 17:34:07 40° N 17:36:35 20° ENE
Cosmos 1898 Rocket 4.0 17:29:44 10° N 17:34:44 41° ENE 17:39:32 11° SE
CZ-4 R/B 4.4 17:30:47 10° SSE 17:34:54 85° ENE 17:39:03 10° NNW
Unknown 4.4 17:31:57 10° WNW 17:35:52 40° N 17:38:16 20° ENE
Cosmos 2082 Rocket 2.2 17:30:10 10° NNW 17:35:55 89° ENE 17:41:36 10° SSE
CZ-2D R/B 3.8 17:33:12 10° SE 17:36:45 36° ENE 17:40:21 10° N
Unknown 4.4 17:33:25 10° WNW 17:37:21 40° N 17:39:41 21° ENE
USA 238 DEB 3.6 17:31:33 10° SSW 17:38:13 76° SE 17:45:10 10° NE
USA 238 3.6 17:31:40 10° SSW 17:38:19 75° SE 17:45:15 10° NE
Cosmos 2058 3.3 17:36:04 10° N 17:40:06 42° ENE 17:44:04 10° SSE
Unknown 4.4 17:36:42 10° WNW 17:40:39 40° N 17:42:50 22° ENE
H-2A R/B 3.6 17:40:41 17° ENE 17:41:16 17° NE 17:44:43 10° NNE
Unknown 4.4 17:38:24 10° WNW 17:42:20 40° N 17:44:27 23° ENE
Unknown 4.2 17:40:20 10° WNW 17:44:14 44° NNE 17:46:07 25° ENE
Unknown 4.3 17:40:16 10° WNW 17:44:14 41° N 17:46:14 24° ENE
Unknown 3.3 17:40:44 10° WNW 17:44:28 76° NNE 17:46:21 28° ESE
Unknown 4.2 17:41:53 10° WNW 17:45:14 44° SW 17:47:59 14° SSE
Unknown 4.4 17:41:47 10° WNW 17:45:44 41° N 17:47:41 24° ENE
Cosmos 1459 Rocket 4.2 17:39:42 10° N 17:45:46 49° ENE 17:51:52 10° SSE
Cosmos 1076 Rocket 3.4 17:42:09 10° N 17:46:30 67° ENE 17:50:48 10° SSE
Unknown 4.3 17:43:25 10° WNW 17:47:22 41° N 17:49:16 25° ENE
Unknown 4.3 17:46:46 10° WNW 17:50:43 41° N 17:52:28 27° ENE
Cosmos 1939 Rocket 3.1 17:47:03 10° SE 17:50:55 48° ENE 17:54:53 10° N
Cosmos 1726 4.4 17:48:32 10° SW 17:51:39 26° WNW 17:54:48 10° NNW
Unknown 4.3 17:48:24 10° WNW 17:52:22 42° N 17:54:02 28° ENE
IRS-1A Rocket 4.5 17:47:57 10° SE 17:53:10 45° ENE 17:58:26 10° N
Unknown 4.3 17:50:04 10° WNW 17:54:02 42° N 17:55:37 29° ENE
Unknown 4.3 17:51:47 10° WNW 17:55:45 42° N 17:57:16 30° ENE
Unknown 4.2 17:52:59 10° WNW 17:56:56 44° NNE 17:58:19 32° ENE
ATLAS 5 CENTAUR R/B 4.1 17:54:32 10° NW 17:57:34 16° NNW 18:00:50 10° NNE
In-Cosmos 22 Rocket 4.2 17:52:24 10° N 17:57:46 58° ENE 18:03:14 10° SSE
Unknown 4.2 17:55:07 10° WNW 17:59:06 43° NNE 18:00:27 32° ENE
Cosmos 2061 Rocket 4.2 17:53:23 10° N 17:59:23 46° ENE 18:05:18 10° SSE
Unknown 4.2 17:56:00 10° WNW 17:59:59 44° NNE 18:01:18 33° ENE
NOSS 3-2 (A) 3.4 17:54:15 10° SW 18:00:03 86° SE 18:06:32 11° NE
Unknown 4.2 17:56:49 10° WNW 18:00:50 45° NNE 18:02:06 34° ENE
Cosmos 2151 3.5 17:58:10 10° N 18:02:12 37° ENE 18:02:29 36° E
Unknown 4.2 17:58:41 10° WNW 18:02:41 45° NNE 18:03:53 35° ENE
Okean 3 Rocket 3.8 17:59:19 10° N 18:03:43 48° ENE 18:05:52 27° SE
Unknown 4.2 18:01:48 10° WNW 18:05:48 45° NNE 18:06:52 36° NE
Ariane Rocket 2.9 18:03:08 10° SSE 18:08:11 65° ENE 18:13:15 10° N
Unknown 4.1 18:05:08 10° WNW 18:09:08 46° NNE 18:10:03 39° NE
Cosmos 1812 Rocket 3.9 18:04:48 10° SSW 18:09:13 68° W 18:13:42 10° N
Unknown 4.1 18:06:44 10° WNW 18:10:45 46° NNE 18:11:36 40° NE
Meteor 2-1 Rocket 4.1 18:05:23 10° S 18:10:49 64° E 18:16:23 10° NNE
Cosmos 468 Rocket 4.0 18:05:56 10° S 18:11:04 55° ESE 18:15:41 13° NNE
HJ-1C 4.2 18:13:18 36° NNE 18:13:18 36° NNE 18:15:34 10° N
ADEOS Rocket 4.0 18:05:49 10° NNE 18:12:20 30° E 18:13:06 30° E
Unknown 4.1 18:08:27 10° WNW 18:12:28 47° NNE 18:13:14 41° NE
Unknown 4.1 18:10:03 10° WNW 18:14:05 47° NNE 18:14:46 42° NE
Cosmos 1727 Rocket 4.2 18:09:37 10° SSW 18:15:45 71° W 18:21:58 10° N
Cosmos 2173 Rocket 3.9 18:10:23 10° N 18:16:40 81° E 18:22:48 10° S
YAOGAN 6 4.5 18:13:24 10° SSW 18:16:42 32° W 18:19:58 10° NNW
Cosmos 2278 Rocket 3.5 18:11:55 10° WSW 18:17:15 41° NW 18:22:38 10° NNE
YAOGAN 1 3.6 18:15:38 10° S 18:19:47 45° W 18:23:58 10° NNW
Cosmos 990 Rocket 3.9 18:15:13 10° NNW 18:20:28 85° ENE 18:23:48 23° SSE
Unknown 3.9 18:16:46 10° WNW 18:20:49 50° NNE 18:21:13 47° NE
Lacrosse 5 3.5 18:16:39 10° WNW 18:21:07 32° SW 18:25:33 10° S
Unknown 3.9 18:18:26 10° WNW 18:22:30 50° NNE 18:22:49 49° NE
Cosmos 2297 3.6 18:17:33 10° SSW 18:23:15 85° ESE 18:29:02 10° NNE
Cosmos 1937 Rocket 3.3 18:18:11 10° NNW 18:23:20 71° ENE 18:25:12 39° SE
Unknown 3.9 18:20:06 10° WNW 18:24:09 51° NNE 18:24:25 50° NNE
Cosmos 858 Rocket 4.3 18:20:23 10° NNW 18:25:37 77° ENE 18:27:44 37° SSE
Unknown 3.9 18:21:44 10° WNW 18:25:48 51° NNE 18:25:59 51° NNE
CZ-4 R/B 3.5 18:22:20 10° SSW 18:26:03 30° W 18:29:49 10° NNW
ARGOS 3.9 18:27:50 33° NE 18:27:50 33° NE 18:32:01 10° N
NOSS 3-2 (C) 3.3 18:21:21 10° SW 18:27:11 87° SE 18:31:44 21° NE
Unknown 3.9 18:23:25 10° WNW 18:27:30 52° NNE 18:27:36 52° NNE
BREEZE-M DEB (TANK) 2.6 18:18:57 10° WSW 18:27:46 71° SSE 18:28:17 61° ESE
Unknown 3.3 18:24:04 10° WNW 18:27:55 82° SSW 18:27:57 81° SSW
SJ-11-01 4.3 18:28:54 55° ENE 18:28:54 55° ENE 18:33:26 10° N
Unknown 3.9 18:26:44 10° WNW 18:30:47 54° NNE 18:30:47 54° NNE
Cosmos 1802 Rocket 4.0 18:24:44 10° N 18:31:13 86° E 18:37:36 10° S
Cosmos 2123 Rocket 4.0 18:25:54 10° SSE 18:31:59 54° E 18:38:03 10° NNE
Starlink (trailer) 3.9 18:28:23 10° WNW 18:32:23 54° NNE 18:32:23 54° NNE
Cosmos 1570 Rocket 4.0 18:28:26 10° S 18:33:41 62° ESE 18:34:59 47° NE
Unknown 3.9 18:30:05 10° WNW 18:34:00 55° N 18:34:00 55° N
Unknown 3.9 18:31:47 10° WNW 18:35:38 55° N 18:35:38 55° N
ATLAS CENTAUR R/B 3.1 18:33:16 10° NNW 18:36:02 23° NNE 18:36:02 23° NNE
Cosmos 2233 Rocket 4.3 18:31:30 10° N 18:37:22 44° ENE 18:37:22 44° ENE
Cosmos 1000 Rocket 4.4 18:31:33 10° S 18:37:45 87° W 18:44:05 10° N
Cosmos 1892 3.5 18:34:58 10° N 18:37:37 43° N 18:37:37 43° N
Cosmos-2242 2.9 18:36:02 10° S 18:40:23 86° W 18:44:45 10° N
Unknown 4.0 18:36:45 10° WNW 18:40:24 55° N 18:40:24 55° N
Cosmos 1725 Rocket 3.9 18:34:55 10° N 18:41:14 70° E 18:43:50 37° SSE
Unknown 4.1 18:38:22 10° WNW 18:41:57 54° NNW 18:41:57 54° NNW
Cosmos 44 3.6 18:38:54 10° SW 18:43:45 63° NW 18:45:15 40° NNE
Unknown 4.1 18:40:02 10° WNW 18:43:34 53° NNW 18:43:34 53° NNW
Cosmos 1763 Rocket 3.4 18:40:21 10° SSW 18:45:40 83° ESE 18:47:27 43° NNE
Unknown 4.1 18:41:39 10° WNW 18:45:10 54° NNW 18:45:10 54° NNW
CZ-2C R/B 4.3 18:48:12 32° NNE 18:48:12 32° NNE 18:51:51 10° N
Unknown 4.2 18:43:21 10° WNW 18:46:45 52° NNW 18:46:45 52° NNW
Unknown 4.2 18:45:07 10° WNW 18:48:27 51° NNW 18:48:27 51° NNW
ATLAS 3B R/B 2.5 18:42:56 10° SW 18:49:40 84° SE 18:52:28 38° NE
Cosmos 2208 Rocket 4.4 18:45:57 10° SSW 18:49:39 47° S 18:49:39 47° S
Unknown 4.4 18:48:22 10° WNW 18:51:34 48° NW 18:51:34 48° NW
BREEZE-M DEB (TANK) 4.5 18:49:35 10° W 18:51:06 23° W 18:51:06 23° W
Unknown 4.4 18:48:26 10° WNW 18:51:38 49° NW 18:51:38 49° NW
Unknown 4.4 18:50:02 10° WNW 18:53:09 47° NW 18:53:09 47° NW
CENTAUR R/B 2.5 18:49:14 10° SW 18:55:16 87° NW 18:58:22 36° NE
Cosmos 2298 Rocket 4.2 18:50:11 10° NNW 18:54:40 56° NNE 18:54:40 56° NNE
SJ 16-02 1.8 18:52:05 10° NNW 18:56:23 58° WSW 18:56:27 58° WSW
Cosmos 2016 Rocket 4.2 18:55:41 10° NNW 19:01:58 70° W 19:07:42 13° S
SPOT 3 Rocket 3.8 19:05:58 59° N 19:05:58 59° N 19:10:13 10° NNW
Cosmos 2369 Rocket 4.4 19:03:47 10° S 19:04:06 12° S 19:04:06 12° S
H-2A R/B 2.7 19:21:20 53° NNW 19:21:20 53° NNW 19:25:27 10° NNW
Cosmos 1943 Rocket 4.2 19:19:26 10° SSW 19:20:37 17° SSW 19:20:37 17° SSW
ATLAS 5 CENTAUR R/B 4.3 19:41:12 10° NNW 19:43:20 15° N 19:43:20 15° N
ADEOS Rocket 3.7 19:50:47 10° N 19:58:19 64° WNW 19:59:59 51° WSW
ATLAS 3B R/B 4.2 20:35:11 10° W 20:39:46 30° NW 20:39:46 30° NW
CENTAUR R/B 4.3 20:41:15 10° W 20:45:37 29° NW 20:45:37 29° NW
